FW9592 Weather Reports


time (UTC)temp
C
wind
direction
speed
KPH
gust
KPH
rain 1hr
cm
rain 24hr
cm
rain mn
cm
humidity
%
barometer
mb
20260504174516 17 171 8.0 19.3 0.00 0.00 0.00 44 1009.6
20260504173516 17 193 12.9 33.8 0.00 0.00 0.00 45 1009.7
20260504172516 16 221 11.3 20.9 0.00 0.00 0.00 47 1009.9
20260504171516 15 197 11.3 24.1 0.00 0.00 0.00 46 1010.0
20260504170516 16 225 9.7 20.9 0.00 0.00 0.00 48 1010.1
20260504150516 12 244 11.3 22.5 0.00 0.00 0.00 50 1011.2
20260504140516 11 210 9.7 19.3 0.00 0.00 0.00 54 1011.6
20260504130516 9 208 9.7 24.1 0.00 0.00 0.00 57 1012.1
20260504110517 4 292 0.0 4.8 0.00 0.00 0.00 74 1012.1
20260504100517 3 346 3.2 4.8 0.00 0.00 0.00 76 1012.1
20260504081557 3 344 1.6 3.2 0.00 0.00 0.00 72 1012.1
20260504080517 3 344 1.6 3.2 0.00 0.00 0.00 72 1012.1
20260504050516 3 0.0 0.0 0.00 0.00 0.00 78 1011.6
20260504045516 3 0.0 0.0 0.00 0.00 0.00 77 1011.7
20260504044516 3 277 1.6 3.2 0.00 0.00 0.00 77 1011.7
20260504043516 3 0.0 0.0 0.00 0.00 0.00 77 1011.7
20260504042516 3 277 0.0 1.6 0.00 0.00 0.00 76 1011.7
20260504041516 3 277 0.0 1.6 0.00 0.00 0.00 73 1011.7
20260504040516 3 0.0 0.0 0.00 0.00 0.00 73 1011.7
20260504035516 3 0.0 0.0 0.00 0.00 0.00 75 1011.7
20260504034516 3 0.0 0.0 0.00 0.00 0.00 77 1011.7
20260504033516 3 0.0 0.0 0.00 0.00 0.00 76 1011.7
20260504032516 3 0.0 1.6 0.00 0.00 0.00 76 1011.7
20260504031536 3 0.0 0.0 0.00 0.00 0.00 75 1011.7
20260504030516 3 0.0 0.0 0.00 0.00 0.00 74 1011.8
20260504025516 3 0.0 0.0 0.00 0.00 0.00 74 1011.7
20260504024516 3 277 0.0 3.2 0.00 0.00 0.00 75 1011.8
20260504023516 3 0.0 0.0 0.00 0.00 0.00 72 1011.8
20260504022516 3 277 0.0 3.2 0.00 0.00 0.00 73 1011.7
20260504021516 4 0.0 0.0 0.00 0.00 0.00 71 1011.6
20260504020516 4 0.0 0.0 0.00 0.00 0.00 71 1011.6
20260504015516 5 277 1.6 3.2 0.00 0.00 0.00 71 1011.5
20260504014516 5 0.0 0.0 0.00 0.00 0.00 69 1011.5
20260504013516 5 277 0.0 3.2 0.00 0.00 0.00 70 1011.5
20260504012516 5 0.0 1.6 0.00 0.00 0.00 66 1011.5
20260504011516 5 277 1.6 3.2 0.00 0.00 0.00 65 1011.4
20260504010536 5 277 3.2 4.8 0.00 0.00 0.00 65 1011.2
20260504005516 5 277 1.6 3.2 0.00 0.00 0.00 63 1011.2
20260504004516 6 277 3.2 4.8 0.00 0.00 0.00 63 1011.1
20260504003536 6 277 1.6 4.8 0.00 0.00 0.00 63 1011.1
20260504002516 6 277 1.6 4.8 0.00 0.00 0.00 61 1011.0
20260504001516 6 277 1.6 4.8 0.00 0.00 0.00 61 1010.9
20260504000516 7 227 1.6 4.8 0.00 0.00 0.00 59 1010.9
20260503235516 7 262 0.0 4.8 0.00 0.00 0.00 57 1010.8
20260503234516 7 249 1.6 6.4 0.00 0.00 0.00 57 1010.7
20260503233516 7 269 1.6 6.4 0.00 0.00 0.00 56 1010.6
20260503232556 7 241 3.2 8.0 0.00 0.00 0.00 55 1010.7
20260503231537 7 224 4.8 16.1 0.00 0.00 0.00 55 1010.6
20260503230516 8 215 4.8 12.9 0.00 0.00 0.00 54 1010.5
20260503225516 8 248 4.8 17.7 0.00 0.28 0.28 53 1010.5
20260503224516 8 223 4.8 16.1 0.00 0.28 0.28 51 1010.4
20260503223516 8 220 4.8 16.1 0.00 0.28 0.28 51 1010.3
20260503222516 8 226 4.8 11.3 0.00 0.28 0.28 50 1010.2
20260503221516 8 244 4.8 17.7 0.00 0.28 0.28 49 1010.2
20260503220536 8 222 8.0 17.7 0.00 0.28 0.28 49 1010.1
20260503215536 8 242 4.8 16.1 0.00 0.28 0.28 48 1010.0
20260503214516 8 253 6.4 22.5 0.00 0.28 0.28 47 1009.9
20260503213516 8 298 4.8 33.8 0.00 0.28 0.28 45 1009.7
20260503212516 9 198 8.0 22.5 0.00 0.28 0.28 45 1009.6
20260503211536 10 238 8.0 19.3 0.00 0.28 0.28 43 1009.5
20260503210516 10 230 9.7 19.3 0.00 0.28 0.28 43 1009.5
20260503205516 10 225 11.3 32.2 0.00 0.28 0.28 40 1009.5
20260503204536 10 227 6.4 27.4 0.00 0.28 0.28 41 1009.5
20260503203516 10 217 8.0 22.5 0.00 0.28 0.28 39 1009.5
20260503202516 10 224 8.0 22.5 0.00 0.28 0.28 39 1009.5
20260503201516 10 61 6.4 19.3 0.00 0.28 0.28 39 1009.6
20260503200516 10 247 9.7 30.6 0.00 0.28 0.28 39 1009.7
20260503195517 9 234 12.9 32.2 0.00 0.28 0.28 38 1009.9
20260503194517 10 217 8.0 20.9 0.00 0.28 0.28 40 1010.1
20260503193517 8 209 6.4 19.3 0.00 0.28 0.28 41 1010.1
20260503192517 8 209 6.4 24.1 0.00 0.28 0.28 41 1010.2
20260503191517 9 233 12.9 30.6 0.00 0.28 0.28 41 1010.3
20260503190517 8 228 11.3 24.1 0.00 0.28 0.28 45 1010.3
20260503185517 7 231 8.0 19.3 0.00 0.28 0.28 44 1010.5
20260503184517 8 265 8.0 33.8 0.00 0.28 0.28 44 1010.6
20260503183537 8 232 6.4 19.3 0.00 0.28 0.28 45 1010.7
20260503182517 8 218 6.4 19.3 0.00 0.28 0.28 44 1010.7
20260503181517 8 282 9.7 22.5 0.00 0.28 0.28 46 1010.7
20260503180518 7 250 11.3 25.7 0.00 0.28 0.28 48 1010.7
20260503175517 7 255 4.8 25.7 0.00 0.28 0.28 48 1010.9